#timestamp,LO_Frequency,Hit,Temp,Hum 
1480399215.7,286046996.2,N,0.0,0.0
1480399235.6,286046996.4,N,0.0,0.0
1480399255.4,286046993.9,N,0.0,0.0
1480399275.2,286046993.8,N,0.0,0.0
1480399295.1,286046993.6,N,0.0,0.0
1480399296.0,286046993.6,N,0.0,0.0
1480399315.8,286046994.4,N,0.0,0.0
1480399335.6,286046994.1,N,0.0,0.0
1480399355.5,286046994.2,N,0.0,0.0
1480399375.3,286046994.4,N,0.0,0.0
1480399395.2,286046994.8,N,0.0,0.0
1480399415.9,286046992.0,N,0.0,0.0
1480399435.7,286046992.8,N,0.0,0.0
1480399455.6,286046992.8,N,0.0,0.0
1480399475.4,286046992.8,N,0.0,0.0
1480399495.3,286046992.4,N,0.0,0.0
1480399515.1,286046992.6,N,0.0,0.0
1480399516.0,286046992.6,N,0.0,0.0
1480399535.8,286046993.0,N,0.0,0.0
1480399555.7,286046990.1,N,0.0,0.0
1480399575.5,286046990.3,N,0.0,0.0
1480399595.3,286046990.6,N,0.0,0.0
1480399615.2,286046991.0,N,0.0,0.0
1480399635.0,286046991.0,N,0.0,0.0
1480399635.9,286046991.0,N,0.0,0.0
1480399655.8,286046990.3,N,0.0,0.0
1480399675.6,286046990.9,N,0.0,0.0
1480399695.4,286046990.4,N,0.0,0.0
1480399715.3,286046990.6,N,0.0,0.0
1480399735.1,286046990.4,N,0.0,0.0
1480399755.8,286046990.6,N,0.0,0.0
1480399775.7,286046991.0,N,0.0,0.0
1480399795.5,286046991.5,N,0.0,0.0
1480399815.4,286046991.6,N,0.0,0.0
1480399835.2,286046988.8,N,0.0,0.0
1480399855.0,286046988.7,N,0.0,0.0
1480399855.9,286046988.7,N,0.0,0.0
1480399875.8,286046988.5,N,0.0,0.0
1480399895.6,286046991.2,N,0.0,0.0
1480399915.5,286046991.2,N,0.0,0.0
1480399935.3,286046991.6,N,0.0,0.0
1480399955.1,286046991.1,N,0.0,0.0
1480399975.9,286046989.0,N,0.0,0.0
1480399995.7,286046991.6,N,0.0,0.0
1480400015.5,286046988.6,N,0.0,0.0
1480400035.4,286046989.5,N,0.0,0.0
1480400055.2,286046989.1,N,0.0,0.0
1480400075.1,286046989.7,N,0.0,0.0
1480400076.0,286046989.7,N,0.0,0.0
1480400095.8,286046989.1,N,0.0,0.0
1480400115.6,286046989.8,N,0.0,0.0
1480400135.5,286046989.1,N,0.0,0.0
1480400155.3,286046989.7,N,0.0,0.0
1480400175.1,286046987.0,N,0.0,0.0
1480400195.9,286046989.9,N,0.0,0.0
1480400215.7,286046986.9,N,0.0,0.0
1480400235.6,286046987.0,N,0.0,0.0
1480400255.4,286046989.6,N,0.0,0.0
1480400275.2,286046987.7,N,0.0,0.0
1480400295.1,286046988.3,N,0.0,0.0
1480400296.0,286046988.3,N,0.0,0.0
1480400315.8,286046988.1,N,0.0,0.0
1480400335.7,286046987.8,N,0.0,0.0
1480400355.5,286046988.2,N,0.0,0.0
1480400375.3,286046987.4,N,0.0,0.0
1480400395.2,286046988.2,N,0.0,0.0
1480400415.0,286046988.0,N,0.0,0.0
1480400415.9,286046988.0,N,0.0,0.0
1480400435.7,286046988.4,N,0.0,0.0
1480400455.6,286046985.5,N,0.0,0.0
1480400475.4,286046986.1,N,0.0,0.0
1480400495.3,286046986.1,N,0.0,0.0
1480400515.1,286046986.0,N,0.0,0.0
1480400535.8,286046985.8,N,0.0,0.0
1480400555.7,286046986.1,N,0.0,0.0
1480400575.5,286046986.1,N,0.0,0.0
1480400595.4,286046986.3,N,0.0,0.0
1480400615.2,286046985.8,N,0.0,0.0
1480400635.0,286046985.9,N,0.0,0.0
1480400635.9,286046985.9,N,0.0,0.0
1480400655.8,286046986.8,N,0.0,0.0
1480400675.6,286046986.8,N,0.0,0.0
1480400695.4,286046986.4,N,0.0,0.0
1480400715.3,286046986.6,N,0.0,0.0
1480400735.1,286046986.0,N,0.0,0.0
1480400755.9,286046986.5,N,0.0,0.0
1480400775.7,286046986.5,N,0.0,0.0
1480400795.5,286046986.8,N,0.0,0.0
1480400815.4,286046984.0,N,0.0,0.0
1480400835.2,286046983.9,N,0.0,0.0
1480400855.0,286046984.3,N,0.0,0.0
1480400855.9,286046984.3,N,0.0,0.0
1480400875.8,286046984.6,N,0.0,0.0
1480400895.6,286046984.7,N,0.0,0.0
1480400915.5,286046985.1,N,0.0,0.0
1480400935.3,286046982.1,N,0.0,0.0
1480400955.1,286046982.5,N,0.0,0.0
1480400975.9,286046982.2,N,0.0,0.0
1480400995.7,286046982.6,N,0.0,0.0
1480401015.5,286046982.4,N,0.0,0.0
1480401035.4,286046982.4,N,0.0,0.0
1480401055.2,286046982.3,N,0.0,0.0
1480401075.1,286046982.5,N,0.0,0.0
1480401076.0,286046982.5,N,0.0,0.0
1480401095.8,286046983.2,N,0.0,0.0
1480401115.6,286046980.9,N,0.0,0.0
1480401135.5,286046980.5,N,0.0,0.0
1480401155.3,286046981.1,N,0.0,0.0
1480401175.1,286046981.1,N,0.0,0.0
1480401195.9,286046981.3,N,0.0,0.0
1480401215.7,286046981.4,N,0.0,0.0
1480401235.6,286046981.0,N,0.0,0.0
1480401255.4,286046981.2,N,0.0,0.0
1480401275.2,286046981.4,N,0.0,0.0
1480401295.1,286046983.4,N,0.0,0.0
1480401296.0,286046983.4,N,0.0,0.0
1480401315.8,286046983.6,N,0.0,0.0
1480401335.7,286046981.2,N,0.0,0.0
1480401355.5,286046981.6,N,0.0,0.0
1480401375.3,286046981.7,N,0.0,0.0
1480401395.2,286046981.4,N,0.0,0.0
1480401415.0,286046981.4,N,0.0,0.0
1480401415.9,286046981.4,N,0.0,0.0
1480401435.7,286046978.9,N,0.0,0.0
1480401455.6,286046979.5,N,0.0,0.0
1480401475.4,286046979.3,N,0.0,0.0
1480401495.3,286046981.9,N,0.0,0.0
1480401515.1,286046979.0,N,0.0,0.0
1480401516.0,286046979.0,N,0.0,0.0
1480401535.8,286046981.8,N,0.0,0.0
1480401555.7,286046981.4,N,0.0,0.0
1480401575.5,286046981.2,N,0.0,0.0
1480401595.4,286046981.8,N,0.0,0.0
1480401615.2,286046981.5,N,0.0,0.0
1480401635.0,286046978.9,N,0.0,0.0
1480401635.9,286046978.9,N,0.0,0.0
1480401655.8,286046979.5,N,0.0,0.0
1480401675.6,286046979.7,N,0.0,0.0
1480401695.4,286046979.7,N,0.0,0.0
1480401715.3,286046979.6,N,0.0,0.0
1480401735.1,286046979.2,N,0.0,0.0
1480401755.9,286046979.1,N,0.0,0.0
1480401775.7,286046979.9,N,0.0,0.0
1480401795.5,286046979.6,N,0.0,0.0
1480401815.4,286046979.7,N,0.0,0.0
1480401835.2,286046979.9,N,0.0,0.0
1480401855.0,286046979.8,N,0.0,0.0
1480401855.9,286046979.8,N,0.0,0.0
1480401875.8,286046977.8,N,0.0,0.0
1480401895.6,286046980.3,N,0.0,0.0
1480401915.5,286046978.6,N,0.0,0.0
1480401935.3,286046978.6,N,0.0,0.0
1480401955.1,286046978.0,N,0.0,0.0
1480401975.9,286046977.5,N,0.0,0.0
1480401995.7,286046977.5,N,0.0,0.0
1480402015.6,286046977.8,N,0.0,0.0
1480402035.4,286046977.3,N,0.0,0.0
1480402055.2,286046978.0,N,0.0,0.0
1480402075.1,286046978.3,N,0.0,0.0
1480402076.0,286046978.3,N,0.0,0.0
1480402095.8,286046978.4,N,0.0,0.0
1480402115.7,286046978.8,N,0.0,0.0
1480402135.5,286046975.7,N,0.0,0.0
1480402155.3,286046975.8,N,0.0,0.0
1480402175.2,286046976.1,N,0.0,0.0
1480402195.9,286046976.3,N,0.0,0.0
1480402215.7,286046976.9,N,0.0,0.0
1480402235.6,286046976.1,N,0.0,0.0
1480402255.4,286046976.1,N,0.0,0.0
1480402275.3,286046975.8,N,0.0,0.0
1480402295.1,286046976.5,N,0.0,0.0
1480402296.0,286046976.5,N,0.0,0.0
1480402315.8,286046977.2,N,0.0,0.0
1480402335.7,286046974.1,N,0.0,0.0
1480402355.5,286046974.5,N,0.0,0.0
1480402375.3,286046974.4,N,0.0,0.0
1480402395.2,286046974.9,N,0.0,0.0
1480402415.0,286046975.3,N,0.0,0.0
1480402415.9,286046975.3,N,0.0,0.0
1480402435.8,286046975.0,N,0.0,0.0
1480402455.6,286046975.0,N,0.0,0.0
1480402475.4,286046975.1,N,0.0,0.0
1480402495.3,286046975.2,N,0.0,0.0
1480402515.1,286046972.7,N,0.0,0.0
1480402535.8,286046972.7,N,0.0,0.0
1480402555.7,286046975.5,N,0.0,0.0
1480402575.5,286046972.9,N,0.0,0.0
1480402595.4,286046972.5,N,0.0,0.0
1480402615.2,286046975.2,N,0.0,0.0
1480402635.0,286046975.6,N,0.0,0.0
1480402635.9,286046975.6,N,0.0,0.0
1480402655.8,286046975.1,N,0.0,0.0
1480402675.6,286046974.7,N,0.0,0.0
1480402695.5,286046974.9,N,0.0,0.0
1480402715.3,286046972.5,N,0.0,0.0
1480402735.1,286046972.6,N,0.0,0.0
1480402755.9,286046972.9,N,0.0,0.0
1480402775.7,286046973.0,N,0.0,0.0
1480402795.5,286046972.9,N,0.0,0.0
